User: anonymous   Login
Location: Raleigh
(35.7720°N, 78.6390°W)
Time: 06:05:03
(UTC-04:00)
Language:

FO-29 - Orbit

View from above orbital plane
View from above orbital plane
View from above satellite
View from above satellite

Ground track
Ground track

The orbit data is extracted from the following two-line orbital elements,

1 24278U 96046B   17231.83082924 +.00000003 +00000-0 +37824-4 0  9999
2 24278 098.5537 106.5963 0350507 172.3296 188.3405 13.53077557037239
Epoch (UTC): 19 August 2017 19:56:23
Eccentricity: 0.0350507
inclination: 98.5537°
perigee height: 800 km
apogee height: 1322 km
right ascension of ascending node: 106.5963°
argument of perigee: 172.3296°
revolutions per day: 13.53077557
mean anomaly at epoch: 188.3405°
orbit number at epoch: 3723

The dashed part of the orbit path shows where the satellite is in the earth's shadow,  

DLR